This is the latest recevied weather packets stored in our database for station/object KD0ISH. If no packets are shown the sender has not sent any weather packets the latest 10 day(s).
| Time | Temp. | Humidity | Pressure | Rain* | Wind** | Luminosity | Snow |
|---|---|---|---|---|---|---|---|
| 1777017184 | 15° C | 99% | 1005.7 hPa | 3.05 mm | - | 0 W/m² | - |
| 1777016880 | 15° C | 99% | 1006.6 hPa | 1.27 mm | - | 0 W/m² | - |
| 1777016576 | 15° C | 99% | 1007.2 hPa | 1.78 mm | - | 0 W/m² | - |
| 1777016273 | 15° C | 99% | 1007.7 hPa | 1.78 mm | - | 0 W/m² | - |
| 1777015970 | 15° C | 99% | 1006.7 hPa | 1.78 mm | - | 0 W/m² | - |
| 1777015667 | 15° C | 99% | 1006.7 hPa | 3.05 mm | - | 0 W/m² | - |
| 1777015364 | 15° C | 98% | 1006.9 hPa | 6.1 mm | - | 0 W/m² | - |
| 1777015059 | 15° C | 98% | 1007.8 hPa | 8.89 mm | - | 0 W/m² | - |
| 1777014754 | 15° C | 98% | 1007.5 hPa | 8.89 mm | - | 0 W/m² | - |
| 1777014450 | 15° C | 98% | 1007.9 hPa | 4.83 mm | - | 0 W/m² | - |
| 1777014144 | 15° C | 97% | 1008.1 hPa | 6.6 mm | - | 0 W/m² | - |
| 1777013841 | 15.56° C | 97% | 1008.3 hPa | 8.89 mm | - | 0 W/m² | - |
| 1777013538 | 15° C | 97% | 1008.5 hPa | 8.89 mm | - | 0 W/m² | - |
| 1777013236 | 15.56° C | 96% | 1008.4 hPa | 7.11 mm | - | 0 W/m² | - |
| 1777012933 | 15.56° C | 96% | 1008.4 hPa | 4.83 mm | - | 0 W/m² | - |
| 1777012628 | 15° C | 96% | 1008.8 hPa | 3.05 mm | - | 0 W/m² | - |
| 1777012324 | 15.56° C | 95% | 1008.4 hPa | 6.1 mm | - | 0 W/m² | - |
| 1777012020 | 15.56° C | 95% | 1008.2 hPa | 10.67 mm | - | 0 W/m² | - |
| 1777011716 | 15.56° C | 95% | 1008.4 hPa | 18.54 mm | - | 0 W/m² | - |
| 1777011412 | 15.56° C | 94% | 1009.1 hPa | 22.86 mm | - | 0 W/m² | - |
| 1777011110 | 15.56° C | 92% | 1008.4 hPa | 31.75 mm | - | 0 W/m² | - |
| 1777010806 | 16.11° C | 91% | 1008.8 hPa | 30.73 mm | - | 0 W/m² | - |
| 1777010503 | 16.11° C | 89% | 1008.8 hPa | 7.87 mm | - | 0 W/m² | - |
| 1777010199 | 16.67° C | 87% | 1008.4 hPa | 1.27 mm | - | 0 W/m² | - |
| 1777009896 | 16.67° C | 85% | 1008.2 hPa | 0 mm | - | 0 W/m² | - |
* Rain latest hour (hover to see other rain measurements)
** Current wind speed in m/s (hover to see current wind gust speed)